Terug naar catalogus

DELTA 1 DEB

ActiefSSO
NORAD 7153·DEBRIS·🇺🇸 United States

Gelanceerd Nov 6, 1973 vanaf Vandenberg Space Force Base

Loading…

Volgende Passages (komende 24 uur)

TLE

VersSource: Space-Track

Epoch: Sep 14, 2026, 09:01 UTC

1 07153U 73086DT  26257.37594733  .00000027  00000-0  56404-3 0  9994
2 07153 102.1646 223.1163 0035797 340.8944 174.4058 12.36038000381755

Volg DELTA 1 DEB in realtime met AllMySat

Download on the App Store